Tracking 22454 objects as of 5-Mar-2021
HD Live streaming from Space Station
objects crossing your sky now

FREGAT DEB

Track FREGAT DEB now!
10-day predictions


NORAD ID: 45923
Int'l Code: 2011-037EM
Perigee: 444.6 km
Apogee: 2,323.7 km
Inclination: 51.5 °
Period: 113.3 minutes
Semi major axis: 7755 km
RCS: Unknown
Launch date: July 18, 2011
Source: Commonwealth of Independent States (former USSR) (CIS)
Launch site: TYURATAM MISSILE AND SPACE COMPLEX (TTMTR)

Note: This is SATELLITE DEBRIS
aabbcc
Your satellite tracking list
Your tracking list is empty




NASA's NSSDC Master Catalog

Two Line Element Set (TLE):
1 45923U 11037EM  21063.06190398  .00090280  00000-0  15273-1 0  9991
2 45923  51.5020 309.9522 1211492 286.3174  60.8030 12.71208689 28910
Source of the keplerian elements: AFSPC